Weather History for KDBN - February, 2011

Change the Weather History Date:

Monday, February 28, 2011

  Actual Average Record
Temperature  
Mean Temperature 66 °F -  
Max Temperature 80 °F 64 °F 83 °F (1948)
Min Temperature 53 °F 37 °F 20 °F (1935)
Cooling Degree Days 2    
Growing Degree Days 16 (Base 50)    
Moisture  
Dew Point 59 °F    
Average Humidity 76    
Maximum Humidity 100    
Minimum Humidity 51    
Precipitation  
Precipitation 0.00 in - - ()
Sea Level Pressure  
Sea Level Pressure 29.96 in    
Wind  
Wind Speed 6 mph (SSW)    
Max Wind Speed 18 mph    
Max Gust Speed 26 mph    
Visibility 8 miles    
Events      
Averages and records for this station are not official NWS values.
T = Trace of Precipitation, MM = Missing Value Source: NWS Daily Summary

Daily Weather History Graph

Daily Weather History Graph

Search for Another Location

Airport or City:

Trip Planner

Search our weather history database for the weather conditions in past years. The results will help you decide how hot, cold, wet, or windy it might be!

Date:

Astronomy

Feb. 28, 2011 Rise Set
Actual Time 7:01 AM EST 6:28 PM EST
Civil Twilight 6:36 AM EST 6:53 PM EST
Nautical Twilight 6:07 AM EST 7:21 PM EST
Astronomical Twilight 5:39 AM EST 7:50 PM EST
Moon 4:20 AM EST (2/28) 2:54 PM EST (2/28)
Length of Visible Light 12h 16m
Length of Day
11h 27m
Waning Crescent, 15% of the Moon is Illuminated
Feb 28
Waning Crescent
Mar 4
New
Mar 12
First Quarter
Mar 19
Full
Mar 26
Last Quarter

Hourly Weather History & Observations

Time (EST) Temp. Heat Index Dew Point Humidity Pressure Visibility Wind Dir Wind Speed Gust Speed Precip Events Conditions
12:17 AM 62.6 °F - 55.4 °F 77% 30.03 in 10.0 mi South 3.5 mph - N/A   Clear
12:35 AM 64.4 °F - 57.2 °F 77% 30.03 in 10.0 mi SSW 3.5 mph - N/A   Clear
12:55 AM 64.4 °F - 57.2 °F 77% 30.03 in - Calm Calm - N/A   Unknown
1:17 AM 62.6 °F - 55.4 °F 77% 30.03 in 10.0 mi Calm Calm - N/A   Clear
1:35 AM 59.0 °F - 57.2 °F 94% 30.03 in 10.0 mi South 4.6 mph - N/A   Clear
1:55 AM - - - N/A% 30.03 in 10.0 mi SSE 4.6 mph - N/A   Clear
2:15 AM 59.0 °F - 57.2 °F 94% 30.03 in 10.0 mi South 3.5 mph - N/A   Clear
2:35 AM 57.2 °F - 57.2 °F 100% 30.02 in 10.0 mi SSE 4.6 mph - N/A   Clear
2:55 AM 57.2 °F - 57.2 °F 100% 30.01 in 7.0 mi South 3.5 mph - N/A   Clear
3:36 AM 53.6 °F - 53.6 °F 100% 30.00 in 0.2 mi Calm Calm - N/A   Unknown
3:55 AM 53.6 °F - 53.6 °F 100% 29.99 in 1.0 mi South 4.6 mph - N/A   Unknown
4:17 AM 55.4 °F - 55.4 °F 100% 29.99 in 5.0 mi South 4.6 mph - N/A   Clear
4:35 AM 55.4 °F - 55.4 °F 100% 29.99 in 7.0 mi South 3.5 mph - N/A   Clear
5:15 AM 57.2 °F - 57.2 °F 100% 30.00 in 5.0 mi Calm Calm - N/A   Clear
5:36 AM 55.4 °F - 55.4 °F 100% 30.00 in 5.0 mi SW 3.5 mph - N/A   Clear
5:55 AM 53.6 °F - 53.6 °F 100% 30.01 in 4.0 mi Calm Calm - N/A   Clear
6:15 AM 53.6 °F - 53.6 °F 100% 30.01 in 3.0 mi South 3.5 mph - N/A   Clear
6:55 AM 55.4 °F - 55.4 °F 100% 30.01 in 3.0 mi South 3.5 mph - N/A   Clear
7:15 AM 57.2 °F - 57.2 °F 100% 30.03 in 5.0 mi Calm Calm - N/A   Clear
7:36 AM 57.2 °F - 57.2 °F 100% 30.03 in 4.0 mi Calm Calm - N/A   Clear
7:55 AM 57.2 °F - 57.2 °F 100% 30.03 in 4.0 mi Calm Calm - N/A   Clear
8:15 AM 59.0 °F - 59.0 °F 100% 30.04 in 7.0 mi Calm Calm - N/A   Clear
8:36 AM 60.8 °F - 60.8 °F 100% 30.05 in 10.0 mi Calm Calm - N/A   Clear
8:55 AM 62.6 °F - 60.8 °F 94% 30.04 in 10.0 mi South 6.9 mph - N/A   Clear
9:15 AM 66.2 °F - 62.6 °F 88% 30.04 in 10.0 mi South 8.1 mph - N/A   Clear
9:36 AM 66.2 °F - 62.6 °F 88% 30.03 in 10.0 mi SSW 8.1 mph - N/A   Clear
9:55 AM 69.8 °F - 62.6 °F 78% 30.03 in 10.0 mi SSW 6.9 mph - N/A   Scattered Clouds
10:15 AM 69.8 °F - 59.0 °F 68% 30.02 in 10.0 mi South 9.2 mph - N/A   Scattered Clouds
10:36 AM 71.6 °F - 57.2 °F 60% 30.02 in 10.0 mi SW 11.5 mph - N/A   Clear
10:55 AM 73.4 °F - 57.2 °F 57% 30.01 in 10.0 mi SSW 11.5 mph 19.6 mph N/A   Clear
11:15 AM 73.4 °F - 57.2 °F 57% 30.01 in 10.0 mi SSW 12.7 mph 19.6 mph N/A   Clear
11:36 AM 75.2 °F - 59.0 °F 57% 30.01 in 10.0 mi SSW 11.5 mph - N/A   Clear
11:55 AM 75.2 °F - 60.8 °F 61% 30.01 in 10.0 mi SSW 9.2 mph 19.6 mph N/A   Clear
12:15 PM 77.0 °F - 60.8 °F 57% 30.02 in 10.0 mi SW 13.8 mph 18.4 mph N/A   Scattered Clouds
12:35 PM 75.2 °F - 60.8 °F 61% 30.01 in 10.0 mi WSW 15.0 mph 20.7 mph N/A   Mostly Cloudy
12:54 PM 78.8 °F - 60.8 °F 54% 30.00 in 10.0 mi SSW 13.8 mph 20.7 mph N/A   Mostly Cloudy
1:14 PM 78.8 °F - 60.8 °F 54% 29.97 in 10.0 mi SSW 12.7 mph 19.6 mph N/A   Scattered Clouds
1:34 PM 78.8 °F - 60.8 °F 54% 29.97 in 10.0 mi SSW 10.4 mph 19.6 mph N/A   Scattered Clouds
1:54 PM 75.2 °F - 60.8 °F 61% 29.96 in 10.0 mi WSW 12.7 mph 20.7 mph N/A   Overcast
2:14 PM 80.6 °F 81.5 °F 60.8 °F 51% 29.93 in 10.0 mi SW 9.2 mph 20.7 mph N/A   Scattered Clouds
2:34 PM 78.8 °F - 60.8 °F 54% 29.92 in 10.0 mi SW 11.5 mph 17.3 mph N/A   Mostly Cloudy
2:54 PM 78.8 °F - 60.8 °F 54% 29.91 in 10.0 mi SSW 12.7 mph 16.1 mph N/A   Overcast
3:14 PM 78.8 °F - 60.8 °F 54% 29.89 in 10.0 mi SSW 11.5 mph 17.3 mph N/A   Mostly Cloudy
3:34 PM 80.6 °F 81.5 °F 60.8 °F 51% 29.88 in 10.0 mi SSW 16.1 mph 21.9 mph N/A   Mostly Cloudy
3:54 PM 80.6 °F 81.5 °F 60.8 °F 51% 29.87 in 10.0 mi SW 16.1 mph 24.2 mph N/A   Scattered Clouds
4:14 PM 80.6 °F 81.5 °F 60.8 °F 51% 29.86 in 10.0 mi SSW 18.4 mph 25.3 mph N/A   Mostly Cloudy
4:34 PM 78.8 °F - 59.0 °F 51% 29.85 in 10.0 mi SSW 13.8 mph 20.7 mph N/A   Mostly Cloudy
4:54 PM 78.8 °F - 59.0 °F 51% 29.83 in 10.0 mi SSW 17.3 mph 24.2 mph N/A   Scattered Clouds
5:14 PM 78.8 °F - 59.0 °F 51% 29.83 in 10.0 mi SSW 13.8 mph 23.0 mph N/A   Clear
5:34 PM 78.8 °F - 59.0 °F 51% 29.82 in 10.0 mi SSW 12.7 mph 21.9 mph N/A   Clear
5:54 PM 78.8 °F - 59.0 °F 51% 29.85 in 10.0 mi SW 16.1 mph 24.2 mph N/A   Clear
6:14 PM 77.0 °F - 59.0 °F 54% 29.86 in 10.0 mi SSW 15.0 mph 21.9 mph N/A   Scattered Clouds
6:34 PM 71.6 °F - 62.6 °F 73% 29.84 in 7.0 mi South 13.8 mph 25.3 mph N/A   Mostly Cloudy
6:54 PM 69.8 °F - 62.6 °F 78% 29.83 in 10.0 mi South 17.3 mph 26.5 mph N/A   Overcast
7:14 PM 69.8 °F - 62.6 °F 78% 29.86 in 10.0 mi SSW 11.5 mph 16.1 mph N/A   Mostly Cloudy
7:34 PM 69.8 °F - 62.6 °F 78% 29.86 in 10.0 mi SW 5.8 mph - N/A   Mostly Cloudy
7:54 PM 69.8 °F - 62.6 °F 78% 29.85 in 10.0 mi SSW 6.9 mph - N/A   Overcast
8:14 PM 69.8 °F - 62.6 °F 78% 29.85 in 10.0 mi SSW 9.2 mph - N/A   Overcast
8:34 PM 69.8 °F - 62.6 °F 78% 29.85 in 10.0 mi SSW 5.8 mph - N/A   Overcast
8:54 PM 69.8 °F - 60.8 °F 73% 29.86 in 10.0 mi SSW 4.6 mph - N/A   Overcast
9:14 PM 66.2 °F - 62.6 °F 88% 29.87 in 10.0 mi WSW 4.6 mph - N/A   Overcast
9:34 PM 66.2 °F - 66.2 °F 100% 29.89 in 4.0 mi WNW 5.8 mph - N/A   Overcast
9:54 PM 66.2 °F - 66.2 °F 100% 29.90 in 1.8 mi North - - N/A   Overcast
10:14 PM 66.2 °F - 66.2 °F 100% 29.91 in 1.8 mi NNW 10.4 mph 18.4 mph N/A   Overcast
10:35 PM 64.4 °F - 64.4 °F 100% 29.92 in 10.0 mi NNW 5.8 mph - N/A   Overcast
11:14 PM 62.6 °F - 62.6 °F 100% 29.92 in 10.0 mi Calm Calm - N/A   Overcast
11:34 PM 62.6 °F - 62.6 °F 100% 29.91 in - Calm Calm - N/A   Mostly Cloudy
11:55 PM 62.6 °F - 62.6 °F 100% 29.90 in 10.0 mi Calm Calm - N/A   Mostly Cloudy